Westminster, MD

7:31 PM EST on November 11, 2019 (GMT -0500)
Carroll County Regional-Poage

Weather History for KDMW - September, 2019

Change the Weather History Date:

Sunday, September 15, 2019

  Actual Average (KTHV) Record (KTHV)
Temperature  
Mean Temperature 76 °F -  
Max Temperature 86 °F 0 °F 89 °F (2005)
Min Temperature 66 °F - 35 °F (2001)
Cooling Degree Days 11    
Growing Degree Days 26 (Base 50)    
Moisture  
Dew Point 61 °F    
Average Humidity 68    
Maximum Humidity 100    
Minimum Humidity 35    
Precipitation  
Precipitation 0.00 in - - ()
Sea Level Pressure  
Sea Level Pressure 30.17 in    
Wind  
Wind Speed 1 mph (North)    
Max Wind Speed 8 mph    
Max Gust Speed -    
Visibility 9 miles    
Events      
Averages and records for this station are not official NWS values.
T = Trace of Precipitation, MM = Missing Value Source: NWS Daily Summary

Daily Weather History Graph

Daily Weather History Graph

Search for Another Location

Airport or City:

Astronomy

Sep. 15, 2019 Rise Set
Actual Time 6:48 AM EDT 7:16 PM EDT
Civil Twilight 6:21 AM EDT 7:43 PM EDT
Nautical Twilight 5:50 AM EDT 8:15 PM EDT
Astronomical Twilight 5:17 AM EDT 8:48 PM EDT
Moon 8:23 PM EDT (9/15) 7:56 AM EDT (9/15)
Length of Visible Light 13h 22m
Length of Day
12h 28m
Full, 98% of the Moon is Illuminated
Sep 15
Full
Sep 21
Last Quarter
Sep 28
New
Oct 5
First Quarter
Oct 13
Full

Hourly Weather History & Observations

Time (EDT) Temp. Heat Index Dew Point Humidity Pressure Visibility Wind Dir Wind Speed Gust Speed Precip Events Conditions
12:00 AM 73.4 °F - 69.8 °F 88% 30.18 in 10.0 mi Calm Calm - N/A   Mostly Cloudy
12:20 AM 73.4 °F - 69.8 °F 88% 30.17 in 10.0 mi Calm Calm - N/A   Scattered Clouds
12:40 AM 71.6 °F - 69.8 °F 94% 30.17 in 10.0 mi Calm Calm - N/A   Clear
1:00 AM 71.6 °F - 69.8 °F 94% 30.17 in 10.0 mi Calm Calm - N/A   Clear
1:20 AM 71.6 °F - 68.0 °F 88% 30.17 in 10.0 mi Calm Calm - N/A   Clear
1:40 AM 69.8 °F - 68.0 °F 94% 30.18 in 7.0 mi Calm Calm - N/A   Clear
2:00 AM 69.8 °F - 68.0 °F 94% 30.18 in 7.0 mi Calm Calm - N/A   Clear
2:20 AM 69.8 °F - 68.0 °F 94% 30.18 in 10.0 mi Calm Calm - N/A   Clear
2:40 AM 69.8 °F - 68.0 °F 94% 30.18 in 7.0 mi Calm Calm - N/A   Clear
3:00 AM 68.0 °F - 66.2 °F 94% 30.18 in 7.0 mi Calm Calm - N/A   Scattered Clouds
3:20 AM 69.8 °F - 68.0 °F 94% 30.19 in 7.0 mi Calm Calm - N/A   Overcast
3:40 AM 69.8 °F - 68.0 °F 94% 30.19 in 7.0 mi Calm Calm - N/A   Overcast
4:00 AM 69.8 °F - 66.2 °F 88% 30.19 in 7.0 mi Calm Calm - N/A   Overcast
4:20 AM 69.8 °F - 66.2 °F 88% 30.19 in 7.0 mi Calm Calm - N/A   Overcast
4:40 AM 69.8 °F - 68.0 °F 94% 30.20 in 7.0 mi Calm Calm - N/A   Overcast
5:00 AM 69.8 °F - 68.0 °F 94% 30.19 in 7.0 mi Calm Calm - N/A   Scattered Clouds
5:20 AM 69.8 °F - 66.2 °F 88% 30.20 in 7.0 mi Calm Calm - N/A   Clear
6:00 AM 68.0 °F - 66.2 °F 94% 30.20 in 4.0 mi North 3.5 mph - N/A   Clear
6:20 AM 66.2 °F - 66.2 °F 100% 30.20 in 7.0 mi Calm Calm - N/A   Clear
6:40 AM 66.2 °F - 64.4 °F 94% 30.20 in 10.0 mi Calm Calm - N/A   Clear
7:00 AM 66.2 °F - 64.4 °F 94% 30.20 in 7.0 mi Calm Calm - N/A   Clear
7:20 AM 66.2 °F - 64.4 °F 94% 30.20 in 2.5 mi Calm Calm - N/A   Clear
8:40 AM 69.8 °F - 64.4 °F 83% 30.21 in 10.0 mi North 5.8 mph - N/A   Clear
9:20 AM 69.8 °F - 64.4 °F 83% 30.21 in 10.0 mi Calm Calm - N/A   Clear
9:40 AM 71.6 °F - 62.6 °F 73% 30.22 in 10.0 mi North 4.6 mph - N/A   Clear
10:00 AM 73.4 °F - 60.8 °F 65% 30.22 in 10.0 mi North 5.8 mph - N/A   Clear
10:40 AM 73.4 °F - 59.0 °F 61% 30.23 in 10.0 mi North 4.6 mph - N/A   Clear
11:00 AM 75.2 °F - 60.8 °F 61% 30.23 in 10.0 mi NE 4.6 mph - N/A   Clear
11:20 AM 75.2 °F - 57.2 °F 53% 30.22 in 10.0 mi Calm Calm - N/A   Clear
11:40 AM 75.2 °F - 59.0 °F 57% 30.21 in 10.0 mi WNW 4.6 mph - N/A   Clear
12:00 PM 75.2 °F - 57.2 °F 53% 30.20 in 10.0 mi Calm Calm - N/A   Clear
12:20 PM 78.8 °F - 57.2 °F 47% 30.20 in 10.0 mi North 5.8 mph - N/A   Clear
12:40 PM 80.6 °F 80.5 °F 55.4 °F 42% 30.20 in 10.0 mi NW 6.9 mph - N/A   Clear
1:00 PM 78.8 °F - 55.4 °F 44% 30.19 in 10.0 mi Calm Calm - N/A   Clear
1:20 PM 78.8 °F - 57.2 °F 47% 30.18 in 10.0 mi North 8.1 mph - N/A   Clear
1:40 PM 80.6 °F 80.8 °F 57.2 °F 45% 30.18 in 10.0 mi North 8.1 mph - N/A   Clear
2:00 PM 80.6 °F 80.8 °F 57.2 °F 45% 30.17 in 10.0 mi NNW 4.6 mph - N/A   Clear
2:20 PM 80.6 °F 80.8 °F 57.2 °F 45% 30.16 in 10.0 mi NNW 4.6 mph - N/A   Clear
2:40 PM 82.4 °F 81.4 °F 53.6 °F 37% 30.16 in 10.0 mi Calm Calm - N/A   Clear
3:00 PM 84.2 °F 82.8 °F 53.6 °F 35% 30.15 in 10.0 mi North 5.8 mph - N/A   Clear
3:20 PM 84.2 °F 82.8 °F 53.6 °F 35% 30.15 in 10.0 mi NNW 4.6 mph - N/A   Clear
4:20 PM 84.2 °F 83.0 °F 55.4 °F 37% 30.14 in 10.0 mi North 3.5 mph - N/A   Clear
4:40 PM 84.2 °F 83.0 °F 55.4 °F 37% 30.14 in 10.0 mi NNE 4.6 mph - N/A   Clear
5:20 PM 86.0 °F 84.5 °F 55.4 °F 35% 30.13 in 1.0 mi Calm Calm - N/A   Clear
5:40 PM 86.0 °F 84.5 °F 55.4 °F 35% 30.13 in 10.0 mi Calm Calm - N/A   Clear
6:00 PM 84.2 °F 83.0 °F 55.4 °F 37% 30.13 in 10.0 mi Calm Calm - N/A   Clear
6:20 PM 84.2 °F 83.0 °F 55.4 °F 37% 30.13 in 10.0 mi Calm Calm - N/A   Clear
6:40 PM 82.4 °F 81.7 °F 55.4 °F 39% 30.13 in 10.0 mi Calm Calm - N/A   Clear
7:00 PM 80.6 °F 80.8 °F 57.2 °F 45% 30.13 in 10.0 mi Calm Calm - N/A   Clear
7:20 PM 78.8 °F - 57.2 °F 47% 30.13 in 10.0 mi Calm Calm - N/A   Clear
7:40 PM 77.0 °F - 57.2 °F 50% 30.12 in 10.0 mi Calm Calm - N/A   Clear
8:00 PM 75.2 °F - 60.8 °F 61% 30.12 in 7.0 mi Calm Calm - N/A   Clear
8:20 PM 73.4 °F - 60.8 °F 65% 30.12 in 10.0 mi Calm Calm - N/A   Clear
8:40 PM 73.4 °F - 60.8 °F 65% 30.13 in 10.0 mi Calm Calm - N/A   Clear
9:00 PM 71.6 °F - 60.8 °F 69% 30.13 in 10.0 mi Calm Calm - N/A   Clear
9:20 PM 71.6 °F - 60.8 °F 69% 30.13 in 10.0 mi Calm Calm - N/A   Clear
9:40 PM 71.6 °F - 60.8 °F 69% 30.13 in 10.0 mi Calm Calm - N/A   Clear
10:20 PM 69.8 °F - 60.8 °F 73% 30.12 in 10.0 mi Calm Calm - N/A   Clear
10:40 PM 69.8 °F - 60.8 °F 73% 30.12 in 10.0 mi Calm Calm - N/A   Clear
11:00 PM 68.0 °F - 60.8 °F 78% 30.13 in 10.0 mi Calm Calm - N/A   Clear
11:20 PM 68.0 °F - 60.8 °F 78% 30.12 in 10.0 mi Calm Calm - N/A   Mostly Cloudy
11:40 PM 68.0 °F - 60.8 °F 78% 30.12 in 10.0 mi Calm Calm - N/A   Overcast